Regional Weather Roundup
Issued by NWS

Home | Current Version | Previous Version | Text Only | Print | Product List | Glossary On
Versions: 1 2 3 4 5 6 7 8 9 10 11 12 13 14 15 16 17 18 19 20 21 22 23 24 25 26 27
000
ASUS44 KLIX 250511
RWRLA
LOUISIANA WEATHER ROUNDUP
NATIONAL WEATHER SERVICE NEW ORLEANS LA
1200 AM CDT SUN SEP 25 2016

NOTE: "FAIR" INDICATES FEW OR NO CLOUDS BELOW 12,000 FEET WITH NO
      SIGNIFICANT WEATHER AND/OR OBSTRUCTIONS TO VISIBILITY.
      SKY/WX - SKY CONDITION AND SIGNIFICANT WEATHER.
      TMP - AIR TEMPERATURE.    DP   - DEWPOINT TEMPERATURE.
      RH  - RELATIVE HUMIDITY.  PRES - PRESSURE.
      HX  - HEAT INDEX.         WCI  - WIND CHILL INDEX.

*  THESE STATIONS ARE NOT NWS OR FAA STATIONS AND ARE NOT UNDER
   NWS QUALITY CONTROL.

LAZ040-048-061>063-065-066-069-250600-
SOUTHEAST LOUISIANA

CITY           SKY/WX    TMP DP  RH WIND       PRES   REMARKS
N.O. AUDUBON   NOT AVBL
N.O. INTL ARPT CLEAR     79  74  84 S3        30.01R
N.O. LAKEFRONT CLEAR     81  72  74 SE5       30.01S
N.O. DOWNTOWN*   N/A     84  74  71 S5        30.02S
RESERVE*       FAIR      77  74  91 CALM      30.01S
SLIDELL        CLEAR     75  72  90 CALM      30.00S
BATON ROUGE    CLEAR     74  72  93 CALM      30.00S
BOOTHVILLE     CLEAR     80  75  84 CALM      30.01F
BELLE CHASSE   CLEAR     74  73  97 CALM      30.01S
BOGALUSA*      FAIR      74  70  88 CALM      30.03R
GALLIANO*      NOT AVBL
NEW ROADS*     FAIR      72  69  90 MISG      30.00S
GONZALES*      FAIR      74  73  99 CALM      30.00R
HAMMOND*       CLEAR     73  70  88 CALM      30.01S
HOUMA*         CLEAR     72  71  98 CALM      30.00S FOG
PORT FOURCHON* CLEAR     82  72  69 SE7       30.00S

$$

LAZ041-044-053-054-250600-
SOUTHWEST LOUISIANA

CITY           SKY/WX    TMP DP  RH WIND       PRES   REMARKS
LAKE CHARLES   CLEAR     76  74  93 E3        29.98R
LAFAYETTE      CLEAR     76  72  87 CALM      29.99S
PATTERSON      LGT RAIN  75  73  93 SE3       29.99S
SALT POINT     NOT AVBL
NEW IBERIA     CLEAR     74  70  87 CALM      29.99F
CHENAULT AIRPK   N/A     73  72  96 E3        29.99R

$$

LAZ027-028-250600-
CENTRAL LOUISIANA

CITY           SKY/WX    TMP DP  RH WIND       PRES   REMARKS
FORT POLK      CLEAR     76  71  86 SE5       30.00R
ALEXANDRIA INT PTCLDY    74  71  91 CALM      29.99R
ALEXANDRIA     CLEAR     72  72 100 CALM      30.01R FOG

$$

LAZ001-002-250600-
NORTHWEST LOUISIANA

CITY           SKY/WX    TMP DP  RH WIND       PRES   REMARKS
SHREVEPORT     CLEAR     77  71  82 SE5       29.99R
BARKSDALE AFB  CLEAR     73  71  93 SE5       29.99R
DTN SHREVEPORT CLEAR     76  70  82 SE3       29.99R

$$

LAZ014-016-250600-
NORTHEAST LOUISIANA

CITY           SKY/WX    TMP DP  RH WIND       PRES   REMARKS
MONROE         CLEAR     73  72  96 CALM      30.01S
TALLULAH       CLEAR     70  69  97 CALM      29.99F

$$





USA.gov is the U.S. government's official web portal to all federal, state and local government web resources and services.